Wind_Speed
7 7 8 7 7 7 7 7 8 9 9 10 10 10 10 10 11 11 11 12 12 12 12 12 13 14 14 14 14 15 15 15 15 16 16 16 16 16 15 15 15 15 16
7 7 7 7 7 7 7 8 9 10 10 11 11 11 11 11 12 12 13 13 13 13 13 14 14 15 15 16 16 16 16 16 16 16 17 17 16 16 15 15 15 16 16
7 7 7 8 8 9 9 9 10 10 11 11 11 11 12 12 13 13 14 14 15 15 15 15 16 16 16 16 17 17 17 17 17 17 17 17 16 16 16 17 17 17 18
6 6 7 8 9 10 10 10 10 11 12 12 12 12 13 13 13 14 14 15 16 16 17 17 18 18 18 17 17 17 17 18 18 17 17 17 17 17 17 18 18 19 20
6 7 8 9 10 10 11 11 12 13 13 14 14 14 14 14 15 15 16 16 17 17 18 18 19 19 19 19 18 18 18 18 18 18 18 18 18 18 18 19 19 20 20
8 8 9 9 10 11 12 12 13 14 15 15 15 15 15 15 16 16 17 17 18 19 19 19 19 20 19 19 19 18 19 19 19 19 19 19 19 19 20 21 21 21 21
10 10 10 11 11 12 13 14 15 15 16 16 16 16 16 17 17 17 18 18 19 19 19 20 20 20 20 20 20 19 19 19 20 20 20 20 21 21 22 22 22 23 23
11 11 12 13 14 14 15 16 16 17 17 17 17 17 17 18 19 19 19 19 19 20 20 20 21 21 21 21 21 21 21 21 21 21 22 22 22 22 23 23 23 24 24
13 14 14 16 16 17 18 19 19 19 18 19 18 18 19 19 20 20 20 20 20 21 21 21 21 22 22 22 23 23 22 22 23 23 24 24 24 24 24 25 25 25 26
15 16 16 17 18 19 20 20 20 20 20 20 21 20 20 20 21 21 21 21 21 21 22 22 22 23 23 23 24 23 23 23 24 24 25 25 25 26 26 26 27 27 28
18 19 19 19 20 21 22 22 23 23 22 21 22 22 21 22 22 23 22 21 22 22 23 23 24 24 24 25 25 25 24 25 25 25 26 26 27 27 27 27 28 28 28
20 21 21 22 22 23 23 23 24 25 24 24 23 23 22 23 23 24 23 23 23 24 24 24 24 25 25 26 26 26 26 26 26 26 27 27 27 28 28 28 28 28 28
21 22 22 24 24 24 25 25 26 26 25 24 24 23 23 24 25 25 25 26 26 26 26 26 26 26 26 27 27 27 27 27 27 27 28 28 28 28 29 29 29 29 29
23 24 25 25 26 26 26 26 27 28 27 26 25 25 25 25 26 27 27 27 28 28 28 28 27 27 28 28 28 29 28 28 28 28 29 29 29 29 30 30 30 30 30
25 25 26 26 27 27 28 28 29 29 29 28 28 27 27 27 28 29 29 29 30 29 29 29 29 29 29 29 29 29 29 29 29 29 29 30 30 31 31 32 31 31 32
28 27 27 28 28 28 29 29 29 30 30 30 30 30 29 29 29 30 31 31 31 31 31 30 30 30 30 30 30 30 30 30 30 30 30 31 31 31 32 33 33 33 33
30 30 29 29 29 30 30 31 31 31 32 32 31 31 31 31 31 32 33 33 32 32 31 31 31 31 31 31 31 31 31 31 31 31 32 32 32 33 33 33 33 33 33
32 32 32 31 31 32 32 32 32 31 31 32 32 32 33 33 33 33 33 34 33 32 32 32 32 32 32 32 32 32 32 31 31 32 33 34 34 34 34 34 34 34 34
33 33 34 33 33 33 33 33 33 33 33 34 34 33 33 34 33 34 34 34 34 33 33 33 33 33 32 33 33 33 33 33 33 34 34 35 35 35 35 35 35 35 35
34 34 34 35 35 36 36 36 35 35 35 35 35 35 35 35 34 35 35 35 34 34 34 33 33 33 33 34 33 33 34 34 34 35 35 35 35 35 35 35 35 35 34
35 35 36 37 37 37 37 37 37 36 36 36 36 36 36 36 36 36 36 34 34 34 34 34 34 34 34 35 34 34 34 34 35 36 35 35 35 35 35 35 35 34 34
36 36 37 38 38 38 38 39 38 37 37 36 36 37 36 35 35 35 35 34 35 35 35 34 34 35 35 35 34 35 35 35 35 36 36 35 36 36 35 35 35 34 34
37 37 37 37 38 38 39 39 39 39 38 37 37 37 36 36 35 36 35 35 36 36 36 35 34 35 35 35 35 35 35 35 35 36 35 35 36 36 35 35 35 35 34
38 38 39 39 38 38 38 38 39 39 38 38 38 37 37 37 37 36 36 37 37 37 36 36 36 35 34 35 36 35 36 36 36 35 36 35 35 36 35 35 34 34 34
39 40 40 39 38 38 38 38 38 38 38 38 38 37 37 38 37 36 37 38 38 37 36 36 36 35 35 35 36 36 36 35 35 35 35 35 36 36 35 35 35 34 34
40 40 39 38 38 37 37 38 37 36 36 36 37 37 37 37 37 37 38 37 37 36 36 36 35 35 34 34 35 35 34 34 34 35 35 35 35 35 35 35 35 35 34
Wind_Direction
5 4 1 359 355 349 343 340 338 335 333 331 329 328 329 330 330 330 330 328 327 323 320 321 320 316 313 311 311 310 309 306 305 304 303 302 299 298 297 297 297 297 297
357 359 360 359 355 346 339 334 332 333 331 330 329 326 325 326 325 328 330 328 325 322 320 320 318 318 314 313 310 308 308 307 305 305 304 302 298 295 295 296 298 299 298
346 352 356 354 352 347 339 333 332 331 329 329 329 326 323 321 320 323 325 325 324 323 321 319 317 316 315 313 310 309 309 307 307 307 305 302 298 294 294 295 297 299 299
335 341 344 342 343 342 341 338 336 334 331 328 326 322 321 322 322 321 320 321 323 324 323 321 318 317 315 314 312 310 309 308 307 306 304 302 299 296 295 295 295 296 298
325 327 331 332 334 335 334 332 333 333 330 328 326 324 323 323 323 322 322 320 320 320 321 321 319 317 316 315 315 311 309 307 305 304 302 301 299 296 296 295 296 296 296
316 320 326 329 331 330 330 329 328 327 326 324 321 320 322 323 323 322 321 320 319 319 320 319 317 316 315 314 315 312 311 308 304 303 301 299 299 298 297 297 297 296 296
307 314 319 321 323 325 325 325 324 323 323 324 321 320 321 320 320 319 318 318 319 318 318 319 318 317 316 313 313 311 310 308 304 302 301 298 298 298 297 297 297 297 296
301 305 307 309 312 314 317 317 315 315 319 320 318 317 318 319 318 317 316 317 317 317 316 317 317 316 316 314 312 310 308 306 304 303 303 302 300 298 297 297 297 297 296
298 300 303 305 306 307 309 310 310 311 314 315 315 313 315 316 317 316 315 314 314 314 313 313 314 315 315 315 313 309 306 305 304 303 303 301 300 298 297 297 297 297 297
293 296 300 302 302 303 303 307 309 310 310 311 309 308 311 313 314 314 312 311 312 312 312 311 311 311 312 313 313 310 307 306 304 303 303 301 299 298 297 297 297 297 297
288 291 295 297 298 300 302 303 305 306 306 306 306 306 308 310 311 312 311 311 311 311 311 311 310 310 310 310 310 309 307 306 304 302 302 301 300 298 298 298 298 298 298
285 289 292 294 296 298 300 300 302 303 303 303 305 306 306 308 310 310 310 310 310 310 310 312 311 310 310 309 309 309 308 306 305 303 301 301 300 299 299 298 298 298 297
282 286 290 293 294 296 298 299 300 300 302 301 302 304 305 306 307 308 308 308 308 308 308 309 311 310 309 310 310 310 309 308 306 304 301 300 300 299 299 299 298 298 298
283 285 288 292 294 295 297 298 300 300 300 301 301 301 301 303 305 306 307 307 306 305 305 306 307 308 308 309 309 309 308 308 306 305 301 300 299 299 299 299 298 298 298
280 283 286 289 292 294 296 298 299 298 297 299 299 299 299 301 303 303 304 304 304 303 302 304 305 306 306 308 308 308 307 307 307 306 305 303 301 300 299 298 297 296 297
278 281 283 285 288 291 294 297 298 297 297 298 298 299 300 301 301 301 302 303 303 303 301 301 302 304 305 305 305 305 306 306 305 306 306 306 305 304 303 302 300 298 297
277 279 282 285 287 289 291 293 296 296 297 298 298 298 299 300 300 300 302 303 302 302 301 301 300 301 302 303 303 304 304 305 305 305 305 306 306 305 304 303 301 301 299
277 280 281 283 285 287 289 290 293 295 297 298 297 297 297 298 299 300 302 304 303 303 302 300 300 300 301 302 303 302 302 303 304 305 305 305 305 305 304 303 302 301 300
278 280 281 282 283 284 285 287 290 292 295 297 297 295 294 296 298 299 301 302 302 302 301 299 299 301 302 302 302 302 301 301 302 304 304 305 305 304 304 304 303 302 302
276 278 280 281 282 283 285 286 288 291 292 294 295 295 294 294 296 298 299 301 300 300 299 297 298 300 301 301 300 300 301 301 302 303 304 304 304 304 303 304 303 302 301
274 276 278 278 280 281 283 284 286 288 290 291 292 293 294 294 294 295 296 298 298 299 299 297 298 299 299 299 298 299 300 300 301 302 303 304 305 304 304 303 303 303 302
274 276 276 277 278 280 281 282 284 286 288 289 290 291 292 292 292 293 294 295 296 298 299 298 298 299 299 298 297 298 299 299 300 302 302 302 304 305 304 304 303 302 302
275 276 277 277 278 280 281 282 283 284 285 285 287 288 288 289 289 291 292 293 295 297 298 298 298 298 299 298 298 299 300 300 300 300 301 302 303 304 304 304 303 303 303
276 277 278 278 279 281 281 282 283 283 282 283 284 284 285 286 288 289 291 291 293 296 297 297 297 298 297 298 299 300 300 300 300 300 300 301 303 304 304 303 303 302 302
276 278 278 278 279 280 281 281 281 282 282 282 282 283 284 286 287 289 289 291 292 294 296 297 296 297 298 298 298 299 298 298 299 299 300 300 302 303 303 302 302 302 302
278 279 279 281 281 281 281 281 280 281 282 283 283 282 284 286 288 289 289 290 292 294 295 295 295 296 297 297 298 298 297 296 297 298 299 299 301 302 302 302 302 301 301
Height
5899 5899 5898 5896 5895 5895 5894 5893 5892 5890 5889 5888 5886 5885 5884 5882 5881 5879 5877 5875 5873 5871 5869 5868 5866 5864 5862 5860 5859 5857 5856 5854 5852 5850 5848 5847 5845 5844 5842 5841 5839 5838 5836
5899 5898 5897 5896 5895 5894 5893 5892 5890 5889 5888 5886 5885 5883 5882 5880 5879 5877 5875 5873 5871 5869 5867 5865 5863 5862 5859 5857 5855 5854 5852 5850 5849 5847 5845 5843 5841 5839 5838 5837 5835 5834 5832
5898 5897 5896 5895 5894 5893 5891 5890 5889 5888 5886 5885 5883 5881 5880 5878 5877 5875 5873 5871 5869 5867 5865 5863 5861 5858 5856 5854 5852 5850 5848 5846 5845 5843 5840 5838 5837 5835 5834 5832 5831 5830 5828
5897 5896 5895 5894 5893 5892 5890 5889 5887 5886 5885 5883 5881 5879 5878 5876 5874 5872 5870 5868 5866 5864 5862 5860 5857 5855 5853 5850 5848 5846 5844 5842 5840 5838 5836 5834 5832 5831 5830 5828 5827 5825 5823
5895 5895 5894 5892 5891 5890 5888 5887 5886 5884 5882 5881 5879 5877 5875 5873 5872 5869 5868 5866 5863 5861 5859 5856 5854 5851 5849 5847 5844 5842 5840 5838 5836 5834 5832 5830 5828 5826 5825 5823 5822 5820 5818
5894 5893 5892 5891 5890 5888 5886 5885 5884 5882 5880 5879 5877 5875 5873 5871 5869 5867 5864 5862 5860 5858 5855 5853 5850 5848 5845 5842 5840 5838 5836 5833 5831 5829 5827 5825 5823 5821 5820 5818 5816 5815 5813
5892 5891 5890 5889 5888 5886 5885 5883 5881 5879 5877 5876 5873 5872 5870 5868 5866 5863 5861 5859 5856 5854 5851 5849 5846 5843 5841 5838 5836 5833 5831 5829 5827 5824 5823 5821 5819 5817 5815 5813 5811 5809 5807
5889 5889 5887 5886 5885 5884 5882 5880 5878 5877 5875 5873 5871 5869 5867 5864 5862 5859 5857 5855 5852 5849 5847 5844 5842 5839 5836 5833 5831 5828 5826 5823 5821 5819 5817 5815 5813 5811 5809 5807 5805 5803 5801
5886 5886 5885 5883 5882 5880 5879 5877 5875 5873 5871 5869 5867 5865 5863 5860 5858 5855 5852 5850 5848 5845 5842 5840 5837 5834 5831 5828 5826 5823 5820 5818 5816 5813 5811 5809 5807 5805 5802 5800 5798 5796 5794
5883 5882 5881 5880 5879 5877 5875 5872 5871 5869 5867 5865 5862 5861 5859 5856 5854 5851 5848 5845 5843 5840 5838 5835 5832 5829 5826 5823 5821 5818 5815 5812 5810 5807 5805 5802 5800 5798 5796 5794 5791 5789 5786
5878 5878 5877 5876 5874 5873 5871 5869 5866 5865 5862 5860 5857 5856 5854 5851 5848 5846 5843 5840 5838 5835 5832 5829 5827 5824 5821 5818 5815 5812 5810 5807 5804 5801 5798 5796 5793 5791 5788 5786 5784 5781 5779
5873 5872 5871 5870 5869 5868 5866 5864 5862 5859 5857 5855 5852 5850 5848 5846 5843 5840 5838 5835 5832 5830 5827 5824 5821 5818 5815 5812 5809 5806 5803 5800 5797 5794 5792 5789 5786 5784 5781 5778 5775 5773 5770
5867 5866 5866 5865 5863 5862 5860 5857 5855 5853 5851 5849 5847 5844 5842 5840 5838 5835 5832 5829 5826 5824 5821 5818 5815 5812 5809 5806 5803 5799 5796 5793 5790 5787 5784 5781 5778 5776 5773 5770 5768 5765 5762
5860 5860 5859 5858 5857 5855 5853 5851 5849 5847 5844 5842 5840 5838 5836 5834 5831 5829 5826 5823 5820 5817 5814 5812 5809 5806 5803 5799 5796 5792 5789 5786 5782 5779 5776 5773 5770 5767 5764 5762 5759 5757 5754
5854 5853 5852 5851 5850 5848 5847 5845 5843 5840 5838 5836 5834 5831 5829 5827 5824 5822 5819 5816 5813 5810 5807 5804 5801 5798 5795 5792 5788 5785 5781 5778 5775 5771 5768 5765 5762 5759 5756 5753 5750 5747 5745
5846 5846 5845 5844 5843 5841 5839 5838 5835 5833 5830 5828 5826 5824 5821 5819 5816 5814 5811 5808 5805 5803 5800 5797 5793 5790 5787 5784 5781 5777 5774 5771 5767 5764 5760 5757 5753 5750 5747 5744 5741 5738 5735
5838 5837 5836 5835 5834 5833 5832 5830 5828 5825 5822 5820 5818 5815 5813 5811 5808 5805 5803 5800 5796 5794 5791 5788 5785 5782 5779 5776 5773 5769 5766 5763 5759 5756 5752 5749 5745 5742 5738 5735 5731 5728 5725
5829 5828 5828 5827 5826 5825 5823 5821 5819 5817 5815 5812 5810 5807 5804 5802 5799 5797 5794 5791 5788 5785 5782 5779 5776 5773 5770 5767 5764 5761 5758 5754 5751 5747 5744 5740 5736 5733 5729 5726 5722 5719 5716
5820 5819 5818 5818 5817 5815 5814 5812 5810 5808 5806 5803 5801 5798 5795 5793 5790 5788 5785 5782 5779 5776 5773 5771 5768 5765 5761 5758 5755 5752 5749 5745 5742 5738 5735 5731 5727 5724 5720 5716 5713 5709 5706
5811 5810 5809 5808 5807 5805 5804 5802 5800 5799 5796 5794 5791 5789 5786 5783 5781 5779 5776 5773 5770 5768 5765 5762 5759 5756 5752 5749 5746 5743 5740 5736 5733 5729 5726 5722 5718 5714 5711 5707 5703 5700 5696
5801 5800 5799 5798 5796 5795 5793 5792 5790 5788 5786 5784 5782 5779 5776 5774 5772 5769 5767 5764 5761 5759 5756 5752 5749 5746 5743 5740 5737 5734 5731 5727 5724 5720 5717 5713 5709 5705 5701 5697 5694 5691 5687
5790 5789 5788 5787 5786 5784 5783 5781 5779 5777 5776 5773 5771 5769 5766 5764 5762 5760 5757 5754 5752 5749 5746 5743 5740 5737 5734 5731 5728 5725 5721 5718 5715 5711 5707 5703 5700 5696 5692 5688 5685 5681 5678
5778 5777 5776 5775 5774 5773 5772 5770 5768 5766 5764 5763 5761 5758 5756 5753 5751 5749 5747 5744 5742 5739 5736 5733 5730 5727 5724 5721 5718 5715 5712 5709 5705 5701 5698 5694 5690 5687 5683 5679 5676 5672 5669
5767 5766 5765 5764 5762 5761 5759 5758 5756 5753 5752 5751 5749 5747 5745 5743 5741 5739 5736 5734 5731 5729 5726 5723 5720 5717 5714 5711 5707 5704 5702 5699 5695 5692 5688 5685 5681 5677 5674 5670 5667 5664 5660
5755 5754 5753 5752 5750 5749 5748 5746 5744 5743 5741 5739 5737 5736 5734 5732 5730 5727 5725 5723 5720 5718 5716 5713 5710 5707 5704 5700 5698 5695 5692 5688 5685 5682 5678 5675 5672 5668 5665 5661 5658 5655 5651
5744 5743 5741 5740 5739 5737 5736 5734 5733 5731 5729 5728 5726 5724 5723 5721 5719 5717 5714 5712 5710 5707 5705 5702 5699 5696 5693 5690 5688 5685 5682 5678 5675 5672 5669 5666 5662 5659 5655 5652 5648 5645 5642